User: anonymous   Login
Location: Unspecified
(0.0000°N, 0.0000°E)
Time: 01:27:53
(UTC+00:00)
Language:

GSAT 7 - Orbit

View from above orbital plane
View from above orbital plane
View from above satellite
View from above satellite

Ground track
Ground track

The orbit data is extracted from the following two-line orbital elements,

1 39234U 13044B   18109.21863849 -.00000086  00000-0  00000+0 0  9997
2 39234   0.0672 102.4319 0004012 226.9720  30.5801  1.00271945 17018
Epoch (UTC): 19 April 2018 05:14:50
Eccentricity: 0.0004012
inclination: 0.0672°
perigee height: 35769 km
apogee height: 35803 km
right ascension of ascending node: 102.4319°
argument of perigee: 226.9720°
revolutions per day: 1.00271945
mean anomaly at epoch: 30.5801°
orbit number at epoch: 1701

The dashed part of the orbit path shows where the satellite is in the earth's shadow,  

DLR